| time (UTC) | temp F | wind direction | speed MPH | gust MPH | rain 1hr in | rain 24hr in | rain mn in | humidity % | barometer mb |
| 20260504181349 | 87 | 0 | 0.0 | 0.0 | 0.00 | 0.00 | 0.04 | 71 | 1013.2 |
| 20260504175741 | 87 | 112 | 3.0 | 7.0 | 0.02 | 0.00 | 0.04 | 72 | 1013.1 |
| 20260504174742 | 87 | 0 | 0.0 | 0.0 | 0.02 | 0.00 | 0.04 | 70 | 1013.2 |
| 20260504173421 | 87 | 0 | 0.0 | 2.0 | 0.01 | 0.00 | 0.02 | 70 | 1013.1 |
| 20260504172421 | 88 | 22 | 7.0 | 15.0 | 0.01 | 0.00 | 0.02 | 69 | 1013.1 |
| 20260504171421 | 88 | 270 | 0.0 | 0.0 | 0.01 | 0.00 | 0.02 | 69 | 1013.2 |
| 20260504170236 | 88 | 0 | 0.0 | 0.0 | 0.00 | 0.00 | 0.00 | 68 | 1013.2 |
| 20260504160237 | 86 | 225 | 0.0 | 1.0 | 0.01 | 0.02 | 0.77 | 69 | 1013.2 |
| 20260504150159 | 88 | 90 | 0.0 | 0.0 | 0.00 | 0.00 | 0.00 | 78 | 1013.2 |
| 20260504141319 | 88 | 112 | 0.0 | 0.0 | 0.00 | 0.00 | 0.00 | 77 | 1013.2 |
| 20260504140318 | 88 | 22 | 0.0 | 0.0 | 0.00 | 0.00 | 0.00 | 76 | 1013.1 |
| 20260504130553 | 89 | 0 | 0.0 | 0.0 | 0.00 | 0.00 | 0.00 | 75 | 1013.1 |
| 20260504081149 | 95 | 0 | 0.0 | 0.0 | 0.00 | 0.00 | 0.00 | 60 | 1013.1 |
| 20260504070207 | 97 | 67 | 0.0 | 0.0 | 0.00 | 0.00 | 0.00 | 60 | 1013.1 |
| 20260504050323 | 95 | 225 | 8.0 | 19.0 | 0.00 | 0.00 | 0.00 | 63 | 1013.1 |
| 20260504045323 | 96 | 112 | 9.0 | 22.0 | 0.00 | 0.00 | 0.00 | 62 | 1013.1 |
| 20260504043450 | 95 | 112 | 8.0 | 19.0 | 0.00 | 0.00 | 0.00 | 64 | 1013.1 |
| 20260504040054 | 97 | 67 | 18.0 | 41.0 | 0.00 | 0.00 | 0.00 | 59 | 1013.2 |
| 20260504035055 | 97 | 67 | 15.0 | 33.0 | 0.00 | 0.00 | 0.00 | 59 | 1013.2 |
| 20260504034050 | 97 | 315 | 5.0 | 12.0 | 0.00 | 0.00 | 0.00 | 60 | 1013.2 |
| 20260504033051 | 96 | 112 | 15.0 | 33.0 | 0.00 | 0.00 | 0.00 | 60 | 1013.2 |
| 20260504032050 | 96 | 225 | 5.0 | 12.0 | 0.00 | 0.00 | 0.00 | 61 | 1013.2 |
| 20260504030828 | 96 | 225 | 2.0 | 5.0 | 0.00 | 0.00 | 0.00 | 60 | 1013.1 |
| 20260504025830 | 96 | 112 | 8.0 | 18.0 | 0.00 | 0.00 | 0.00 | 61 | 1013.1 |
| 20260504024828 | 96 | 202 | 0.0 | 1.0 | 0.00 | 0.00 | 0.00 | 61 | 1013.1 |
| 20260504023826 | 95 | 112 | 15.0 | 34.0 | 0.00 | 0.00 | 0.00 | 63 | 1013.1 |
| 20260504021402 | 95 | 225 | 22.0 | 51.0 | 0.00 | 0.00 | 0.00 | 61 | 1013.2 |
| 20260504020406 | 95 | 67 | 1.0 | 3.0 | 0.00 | 0.00 | 0.00 | 62 | 1013.1 |
| 20260504015402 | 95 | 112 | 4.0 | 9.0 | 0.00 | 0.00 | 0.00 | 61 | 1013.2 |
| 20260504014400 | 95 | 0 | 6.0 | 15.0 | 0.00 | 0.00 | 0.00 | 62 | 1013.1 |
| 20260504013401 | 94 | 315 | 5.0 | 11.0 | 0.00 | 0.00 | 0.00 | 63 | 1013.1 |
| 20260504012357 | 94 | 315 | 8.0 | 18.0 | 0.00 | 0.00 | 0.00 | 65 | 1013.1 |
| 20260504010904 | 93 | 67 | 13.0 | 30.0 | 0.00 | 0.00 | 0.00 | 66 | 1013.1 |
| 20260504005903 | 93 | 112 | 9.0 | 21.0 | 0.00 | 0.00 | 0.00 | 66 | 1013.2 |
| 20260504004903 | 93 | 112 | 4.0 | 9.0 | 0.00 | 0.00 | 0.00 | 67 | 1013.1 |
| 20260504003905 | 92 | 112 | 2.0 | 5.0 | 0.00 | 0.00 | 0.00 | 68 | 1013.1 |
| 20260504001450 | 91 | 315 | 3.0 | 8.0 | 0.00 | 0.00 | 0.00 | 69 | 1013.1 |
| 20260504000450 | 91 | 67 | 5.0 | 11.0 | 0.00 | 0.00 | 0.00 | 69 | 1013.1 |
| 20260503235449 | 91 | 67 | 10.0 | 22.0 | 0.00 | 0.00 | 0.00 | 70 | 1013.1 |
| 20260503234447 | 91 | 202 | 1.0 | 3.0 | 0.00 | 0.00 | 0.00 | 69 | 1013.1 |
| 20260503233444 | 91 | 67 | 0.0 | 0.0 | 0.00 | 0.00 | 0.00 | 68 | 1013.2 |
| 20260503231712 | 90 | 67 | 1.0 | 2.0 | 0.00 | 0.00 | 0.00 | 69 | 1013.2 |
| 20260503230059 | 91 | 67 | 8.0 | 18.0 | 0.00 | 0.00 | 0.00 | 69 | 1013.1 |
| 20260503223943 | 91 | 0 | 0.0 | 1.0 | 0.00 | 0.00 | 0.00 | 68 | 1013.2 |
| 20260503222942 | 91 | 67 | 3.0 | 7.0 | 0.00 | 0.00 | 0.00 | 68 | 1013.2 |
| 20260503221942 | 91 | 202 | 2.0 | 4.0 | 0.00 | 0.00 | 0.00 | 68 | 1013.1 |
| 20260503220942 | 91 | 67 | 2.0 | 5.0 | 0.00 | 0.00 | 0.00 | 68 | 1013.2 |
| 20260503215942 | 91 | 67 | 3.0 | 8.0 | 0.00 | 0.00 | 0.00 | 68 | 1013.1 |
| 20260503214943 | 91 | 0 | 24.0 | 54.0 | 0.00 | 0.00 | 0.00 | 68 | 1013.2 |
| 20260503212401 | 91 | 135 | 12.0 | 27.0 | 0.00 | 0.00 | 0.00 | 68 | 1013.1 |
| 20260503211401 | 91 | 0 | 9.0 | 20.0 | 0.00 | 0.00 | 0.00 | 68 | 1013.1 |
| 20260503210402 | 91 | 315 | 0.0 | 0.0 | 0.00 | 0.00 | 0.00 | 69 | 1013.2 |
| 20260503205401 | 91 | 112 | 0.0 | 1.0 | 0.00 | 0.00 | 0.00 | 70 | 1013.1 |
| 20260503203733 | 91 | 112 | 10.0 | 22.0 | 0.00 | 0.00 | 0.00 | 70 | 1013.2 |
| 20260503202734 | 91 | 225 | 5.0 | 12.0 | 0.00 | 0.00 | 0.00 | 70 | 1013.1 |
| 20260503201520 | 91 | 67 | 10.0 | 23.0 | 0.00 | 0.00 | 0.00 | 69 | 1013.1 |
| 20260503200520 | 91 | 112 | 9.0 | 20.0 | 0.00 | 0.00 | 0.00 | 69 | 1013.1 |
| 20260503195521 | 91 | 202 | 6.0 | 14.0 | 0.00 | 0.00 | 0.00 | 69 | 1013.1 |
| 20260503194142 | 90 | 112 | 0.0 | 1.0 | 0.00 | 0.00 | 0.00 | 70 | 1013.2 |
| 20260503193142 | 89 | 315 | 12.0 | 28.0 | 0.00 | 0.00 | 0.00 | 73 | 1013.1 |
| 20260503192142 | 89 | 112 | 0.0 | 0.0 | 0.00 | 0.00 | 0.00 | 73 | 1013.2 |
| 20260503190423 | 89 | 112 | 5.0 | 12.0 | 0.00 | 0.00 | 0.00 | 72 | 1013.1 |
| 20260503185421 | 90 | 67 | 7.0 | 16.0 | 0.00 | 0.00 | 0.00 | 71 | 1013.1 |
| 20260503184421 | 90 | 225 | 0.0 | 0.0 | 0.00 | 0.00 | 0.00 | 71 | 1013.2 |
| 20260503183421 | 90 | 67 | 1.0 | 3.0 | 0.00 | 0.00 | 0.00 | 71 | 1013.1 |